Location: Starlight Observatory
(38.4029°N, 85.8936°W)
Time: 00:56:48
(UTC-05:00)

Amateur Radio Satellites - All Passes

Search period start: 20 December 2014 00:26
Search period end: 21 December 2014 00:26
Location: Starlight Observatory, 38.4029°N, 85.8936°W

Satellite Date Start Highest point End Downlink Frequencies (MHz)
Time Altitude Azimuth
ESTCUBE 1 20 Dec 00:31:19 00:33:33 14° 268° (W) 00:35:48 437.505/2401.250
PCSat 20 Dec 00:32:16 00:37:28 47° 248° (WSW) 00:42:37 145.827
POPSAT HIP 1 20 Dec 00:34:37 00:38:08 26° 291° (WNW) 00:41:41 437.405
YUBILEINY 20 Dec 00:41:55 00:50:41 86° 95° (E) 00:59:26 435.215
RS-15 20 Dec 00:46:04 00:49:54 12° 264° (W) 00:53:48 29.354- 29.394
UNISAT 6 20 Dec 00:53:19 00:55:37 14° 296° (WNW) 00:57:55 437.425
TISAT 1 20 Dec 00:57:22 01:00:51 25° 264° (W) 01:04:20 437.305
SPROUT 20 Dec 00:57:35 01:01:15 28° 264° (W) 01:04:57 437.525
O/OREOS (USA 219) 20 Dec 01:03:24 01:07:41 48° 107° (ESE) 01:11:59 437.305
DUCHIFAT 1 20 Dec 01:04:24 01:06:23 13° 295° (WNW) 01:08:23 145.980
BUGSAT 1 20 Dec 01:07:35 01:09:37 14° 294° (WNW) 01:11:40 437.445
SWISSCUBE 20 Dec 01:18:16 01:23:03 77° 75° (ENE) 01:27:51 437.505
ITUPSAT 1 20 Dec 01:18:23 01:23:09 70° 75° (ENE) 01:27:57 437.325
KKS-1 20 Dec 01:25:56 01:28:38 16° 65° (ENE) 01:31:21 437.445
STARS 20 Dec 01:26:26 01:27:00 10° 62° (ENE) 01:27:33 437.465
AUBIESAT-1 20 Dec 01:28:02 01:32:43 56° 69° (ENE) 01:37:32 437.475
BEESAT 20 Dec 01:43:31 01:48:16 63° 259° (WSW) 01:53:02 436.000
M-CUBED/EXP-1 PRIME 20 Dec 01:52:55 01:57:43 75° 253° (WSW) 02:02:39 437.505
Oscar 19 20 Dec 02:14:28 02:19:42 74° 102° (ESE) 02:24:52 437.125/150
Gurwin Techsat 1B 20 Dec 02:19:55 02:23:28 18° 93° (E) 02:27:01 435.225
ITAMSAT 1 20 Dec 02:28:41 02:33:25 35° 98° (E) 02:38:07 435.822/435.867
YUBILEINY 20 Dec 02:42:54 02:48:36 19° 295° (WNW) 02:54:19 435.215
O/OREOS (USA 219) 20 Dec 02:44:39 02:47:22 16° 304° (WNW) 02:50:06 437.305
HORYU 2 20 Dec 02:50:04 02:51:12 11° 91° (E) 02:52:20 437.375
STARS 20 Dec 02:58:29 03:02:50 72° 258° (WSW) 03:07:14 437.465
ITUPSAT 1 20 Dec 03:00:06 03:01:29 11° 270° (W) 03:02:52 437.325
KKS-1 20 Dec 03:00:40 03:04:54 44° 261° (W) 03:09:09 437.445
AUBIESAT-1 20 Dec 03:05:04 03:07:57 16° 264° (W) 03:10:52 437.475
VERMONT LUNAR 20 Dec 03:47:26 03:50:47 41° 155° (SSE) 03:54:08 437.305
Oscar 19 20 Dec 03:55:54 03:58:22 14° 299° (WNW) 04:00:49 437.125/150
PHONESAT 2.4 20 Dec 03:57:45 04:01:03 34° 153° (SSE) 04:04:22 2401.200-2431.200
Gurwin Techsat 1B 20 Dec 03:58:34 04:03:43 52° 288° (WNW) 04:08:50 435.225
AIST 1 20 Dec 04:00:02 04:04:09 45° 79° (E) 04:08:14
MOZHAYETS 4 20 Dec 04:05:02 04:08:49 26° 69° (ENE) 04:12:38
ITAMSAT 1 20 Dec 04:08:30 04:12:43 26° 293° (WNW) 04:16:56 435.822/435.867
HORYU 2 20 Dec 04:23:46 04:28:16 64° 286° (WNW) 04:32:43 437.375
GONETS M04 20 Dec 04:44:10 04:49:49 19° 79° (E) 04:55:26
AO-7 20 Dec 04:51:33 04:59:52 65° 104° (ESE) 05:08:08 29.400- 29.500
SO-50 20 Dec 05:00:42 05:02:19 11° 39° (NE) 05:03:56 436.795
PRISM 20 Dec 05:05:56 05:08:34 16° 66° (ENE) 05:11:13 437.425
STRAND 1 20 Dec 05:22:15 05:24:22 13° 61° (ENE) 05:26:28 437.568
VERMONT LUNAR 20 Dec 05:25:31 05:29:02 68° 351° (N) 05:32:34 437.305
JAS-2 20 Dec 05:27:35 05:32:57 45° 98° (E) 05:37:55 435.910
CUBESAT XI-V 20 Dec 05:27:45 05:30:09 14° 64° (ENE) 05:32:32 437.345
PHONESAT 2.4 20 Dec 05:35:59 05:39:37 76° 348° (NNW) 05:43:15 2401.200-2431.200
AIST 1 20 Dec 05:39:30 05:41:20 13° 275° (W) 05:43:10
MOZHAYETS 4 20 Dec 05:41:52 05:45:54 29° 264° (W) 05:49:59
CUTE-I 20 Dec 05:53:10 05:56:14 15° 92° (E) 05:59:18 437.470
GONETS M04 20 Dec 06:36:37 06:45:28 82° 277° (W) 06:54:22
SO-50 20 Dec 06:38:51 06:43:45 70° 57° (ENE) 06:48:38 436.795
PRISM 20 Dec 06:39:46 06:43:45 40° 261° (W) 06:47:46 437.425
AO-7 20 Dec 06:45:14 06:52:02 29° 302° (WNW) 06:58:49 29.400- 29.500
STRAND 1 20 Dec 06:57:45 07:02:52 78° 257° (WSW) 07:07:59 437.568
Cubesat XI-IV 20 Dec 06:57:55 07:03:13 68° 102° (ESE) 07:08:30 437.490
CUBESAT XI-V 20 Dec 07:02:28 07:07:04 58° 260° (W) 07:11:41 437.345
VERMONT LUNAR 20 Dec 07:04:02 07:07:33 66° 8° (N) 07:11:04 437.305
JAS-2 20 Dec 07:13:33 07:17:39 21° 297° (WNW) 07:21:31 435.910
PHONESAT 2.4 20 Dec 07:14:53 07:18:29 63° 5° (N) 07:22:06 2401.200-2431.200
CUTE-I 20 Dec 07:31:27 07:36:41 60° 287° (WNW) 07:41:54 437.470
SO-50 20 Dec 08:21:27 08:23:42 13° 253° (WSW) 08:25:58 436.795
GONETS M04 20 Dec 08:38:54 08:43:44 16° 298° (WNW) 08:48:36
Cubesat XI-IV 20 Dec 08:39:45 08:42:42 15° 298° (WNW) 08:45:40 437.490
VERMONT LUNAR 20 Dec 08:42:26 08:45:50 46° 204° (SSW) 08:49:14 437.305
DOVE 4 20 Dec 08:42:55 08:44:13 11° 91° (E) 08:45:32 437.250
PHONESAT 2.4 20 Dec 08:53:38 08:57:12 57° 202° (SSW) 09:00:47 2401.200-2431.200
HO-68 20 Dec 08:54:12 09:00:32 33° 97° (E) 09:06:49 435.675
AAUSAT CUBESAT 2 20 Dec 08:59:49 09:02:27 16° 93° (E) 09:05:04 437.432
CANX-2 20 Dec 09:10:29 09:14:32 38° 98° (E) 09:18:32 2200.000
CINEMA 3 20 Dec 09:11:13 09:13:28 13° 91° (E) 09:15:45 145.822/145.860
BRITE-PL 20 Dec 09:20:58 09:25:36 54° 100° (E) 09:30:37 437.365/2234.400
COMPASS 1 20 Dec 09:33:37 09:37:43 45° 99° (E) 09:41:47 437.405
UWE-3 20 Dec 09:37:23 09:39:16 12° 91° (E) 09:41:09 435.000/436.395/437.385
SEEDS 20 Dec 09:38:24 09:42:40 63° 101° (E) 09:46:54 437.485
CUTE 1.7 + AOD 2 20 Dec 09:41:10 09:45:31 80° 102° (ESE) 09:49:48 437.475
CUSAT 1 20 Dec 09:43:02 09:46:06 29° 88° (E) 09:50:02 437.405
TIGRISAT 20 Dec 09:44:43 09:48:02 22° 67° (ENE) 09:51:24 435.000
GOMX 1 20 Dec 09:49:59 09:54:46 79° 102° (ESE) 09:59:53 467.674
POPSAT HIP 1 20 Dec 09:51:36 09:54:12 16° 66° (ENE) 09:56:49 437.405
DX 1 20 Dec 09:53:12 09:56:42 23° 96° (E) 10:00:10 434.975-435.025
DELFI C3 20 Dec 09:53:23 09:56:52 26° 96° (E) 10:00:19 145.870
MaSat-1 20 Dec 10:03:41 10:05:12 16° 300° (WNW) 10:06:42 437.345
UNISAT 6 20 Dec 10:12:39 10:16:46 44° 72° (ENE) 10:21:01 437.425
HUMSAT D 20 Dec 10:14:40 10:17:03 14° 92° (E) 10:19:27 437.325/437.525
Oscar 11 20 Dec 10:15:54 10:20:14 60° 101° (E) 10:24:32 145.826/435.025
DOVE 4 20 Dec 10:17:33 10:22:19 74° 284° (WNW) 10:27:22 437.250
DUCHIFAT 1 20 Dec 10:18:32 10:22:15 32° 71° (ENE) 10:26:00 145.980
BUGSAT 1 20 Dec 10:20:02 10:23:27 26° 70° (ENE) 10:26:51 437.445
UKube-1 20 Dec 10:24:12 10:28:26 51° 100° (E) 10:32:39 .
QB50P2 20 Dec 10:31:25 10:35:27 46° 73° (ENE) 10:39:30 145.880/145.840
DANDE 20 Dec 10:32:17 10:35:34 79° 279° (W) 10:40:00 436.750
CUBEBUG 2 20 Dec 10:32:26 10:37:03 59° 101° (E) 10:41:43 437.445
PHONESAT 2.4 20 Dec 10:33:39 10:35:25 13° 216° (SW) 10:37:12 2401.200-2431.200
AAUSAT CUBESAT 2 20 Dec 10:34:18 10:38:15 38° 288° (WNW) 10:42:10 437.432
POLYITAN 1 20 Dec 10:39:59 10:44:06 59° 74° (ENE) 10:48:16 437.675
HO-68 20 Dec 10:41:37 10:48:18 44° 294° (WNW) 10:54:57 435.675
RS-15 20 Dec 10:41:52 10:49:26 22° 101° (E) 10:56:55 29.354- 29.394
NANOSAT C BR1 20 Dec 10:42:34 10:46:42 62° 75° (ENE) 10:50:52 145.865
ANTELSAT 20 Dec 10:44:17 10:48:37 80° 258° (WSW) 10:53:07 437.575/2403.000
ZACube-1 20 Dec 10:45:00 10:49:29 58° 100° (E) 10:54:00 437.345
VELOX 1 20 Dec 10:45:50 10:49:42 29° 97° (E) 10:53:34 145.980
CINEMA 3 20 Dec 10:46:16 10:50:57 61° 285° (WNW) 10:55:48 145.822/145.860
CANX-2 20 Dec 10:47:16 10:50:09 18° 293° (WNW) 10:53:02 2200.000
ESTCUBE 1 20 Dec 10:48:33 10:50:21 12° 91° (E) 10:52:09 437.505/2401.250
YUBILEINY 20 Dec 10:54:21 11:02:22 40° 74° (ENE) 11:10:21 435.215
QB50P1 20 Dec 10:56:50 11:01:03 88° 259° (W) 11:05:17 145.935-145.965
BRITE-PL 20 Dec 11:00:57 11:03:46 16° 293° (WNW) 11:06:42 437.365/2234.400
COMPASS 1 20 Dec 11:10:41 11:13:02 15° 294° (WNW) 11:15:23 437.405
UWE-3 20 Dec 11:11:35 11:16:07 60° 285° (WNW) 11:20:42 435.000/436.395/437.385
FUNcube-1 20 Dec 11:11:52 11:16:23 72° 284° (WNW) 11:20:57 145.935
O/OREOS (USA 219) 20 Dec 11:14:35 11:19:07 74° 68° (ENE) 11:23:38 437.305
SEEDS 20 Dec 11:16:42 11:17:56 11° 296° (WNW) 11:19:09 437.485
TIGRISAT 20 Dec 11:20:44 11:24:34 31° 263° (W) 11:28:31 435.000
POPSAT HIP 1 20 Dec 11:25:50 11:29:46 39° 261° (W) 11:33:44 437.405
CUSAT 1 20 Dec 11:27:09 11:29:30 16° 297° (WNW) 11:32:14 437.405
AISAT 20 Dec 11:28:21 11:32:49 87° 285° (WNW) 11:37:16 437.250
DELFI C3 20 Dec 11:28:46 11:32:00 23° 291° (WNW) 11:35:13 145.870
DX 1 20 Dec 11:29:11 11:32:53 28° 291° (WNW) 11:36:35 434.975-435.025
50 SAT 20 Dec 11:29:38 11:33:48 87° 101° (E) 11:37:58 437.505
GOMX 1 20 Dec 11:30:50 11:32:20 11° 296° (WNW) 11:33:52 467.674
CUBEBUG 1 20 Dec 11:35:58 11:40:03 39° 99° (E) 11:44:06 437.445
HUMSAT D 20 Dec 11:48:55 11:53:03 45° 287° (WNW) 11:57:12 437.325/437.525
UNISAT 6 20 Dec 11:51:20 11:53:49 15° 268° (W) 11:56:19 437.425
Oscar 11 20 Dec 11:54:10 11:55:52 12° 296° (WNW) 11:57:33 145.826/435.025
DUCHIFAT 1 20 Dec 11:55:10 11:58:10 19° 266° (W) 12:01:10 145.980
Oscar 19 20 Dec 11:55:12 11:56:25 11° 60° (ENE) 11:57:38 437.125/150
BUGSAT 1 20 Dec 11:55:42 11:58:54 22° 264° (W) 12:02:05 437.445
UKube-1 20 Dec 12:01:58 12:04:08 14° 296° (WNW) 12:06:19 .
QB50P2 20 Dec 12:09:35 12:11:36 13° 268° (W) 12:13:37 145.880/145.840
CUBEBUG 2 20 Dec 12:10:53 12:13:15 14° 295° (WNW) 12:15:38 437.445
POLYITAN 1 20 Dec 12:19:57 12:20:24 10° 269° (W) 12:20:51 437.675
VELOX 1 20 Dec 12:22:38 12:26:07 23° 292° (WNW) 12:29:37 145.980
ZACube-1 20 Dec 12:23:08 12:25:21 14° 295° (WNW) 12:27:35 437.345
ESTCUBE 1 20 Dec 12:23:09 12:27:33 56° 286° (WNW) 12:31:55 437.505/2401.250
TISAT 1 20 Dec 12:43:03 12:47:13 54° 100° (E) 12:51:21 437.305
SPROUT 20 Dec 12:45:14 12:49:28 54° 100° (E) 12:53:41 437.525
RS-15 20 Dec 12:49:18 13:00:17 85° 300° (WNW) 13:11:19 29.354- 29.394
YUBILEINY 20 Dec 12:51:10 12:59:07 42° 273° (W) 13:07:05 435.215
BEESAT 2 20 Dec 13:07:32 13:10:43 22° 111° (ESE) 13:13:57 435.950
CUBEBUG 1 20 Dec 13:13:17 13:16:06 17° 294° (WNW) 13:18:55 437.445
JUGNU 20 Dec 13:20:18 13:22:07 11° 174° (S) 13:23:57 437.505
SWISSCUBE 20 Dec 13:21:09 13:24:50 22° 95° (E) 13:28:29 437.505
ITUPSAT 1 20 Dec 13:21:38 13:25:08 20° 94° (E) 13:28:36 437.325
Oscar 19 20 Dec 13:29:48 13:34:57 90° 256° (WSW) 13:40:08 437.125/150
PCSat 20 Dec 13:29:53 13:34:23 27° 108° (ESE) 13:38:54 145.827
Gurwin Techsat 1B 20 Dec 13:39:25 13:43:42 26° 66° (ENE) 13:48:00 435.225
ITAMSAT 1 20 Dec 13:45:10 13:50:06 47° 71° (ENE) 13:55:03 435.822/435.867
BEESAT 20 Dec 13:45:39 13:50:04 37° 98° (E) 13:54:26 436.000
ISS 20 Dec 13:51:33 13:54:46 50° 137° (SE) 13:57:59 145.825
AO-7 20 Dec 14:00:48 14:05:25 16° 50° (NE) 14:10:01 29.400- 29.500
BEESAT 3 20 Dec 14:04:54 14:08:59 73° 302° (WNW) 14:13:09 437.485
AIST 2 20 Dec 14:10:15 14:14:19 50° 116° (ESE) 14:18:28 435.215
TISAT 1 20 Dec 14:20:49 14:22:33 12° 296° (WNW) 14:24:18 437.305
SPROUT 20 Dec 14:23:09 14:25:04 13° 295° (WNW) 14:26:59 437.525
SRMSAT 20 Dec 14:24:12 14:25:06 10° 172° (S) 14:26:01 437.500
BEESAT 2 20 Dec 14:45:05 14:48:47 31° 308° (NW) 14:52:33 435.950
AUBIESAT-1 20 Dec 14:47:42 14:51:56 55° 104° (ESE) 14:55:46 437.475
STARS 20 Dec 14:50:40 14:54:14 23° 95° (E) 14:57:47 437.465
KKS-1 20 Dec 14:53:23 14:57:34 38° 98° (E) 15:01:43 437.445
SWISSCUBE 20 Dec 14:58:25 15:02:45 35° 290° (WNW) 15:07:02 437.505
ITUPSAT 1 20 Dec 14:58:43 15:03:08 39° 289° (WNW) 15:07:31 437.325
RS-15 20 Dec 15:05:34 15:14:26 27° 327° (NNW) 15:23:27 29.354- 29.394
JUGNU 20 Dec 15:08:16 15:10:15 12° 185° (S) 15:12:13 437.505
PCSat 20 Dec 15:12:33 15:17:35 39° 305° (NW) 15:22:40 145.827
M-CUBED/EXP-1 PRIME 20 Dec 15:13:08 15:17:29 65° 290° (WNW) 15:21:24 437.505
Gurwin Techsat 1B 20 Dec 15:18:33 15:23:27 38° 262° (W) 15:28:22 435.225
HORYU 2 20 Dec 15:20:37 15:25:05 84° 257° (WSW) 15:29:36 437.375
BEESAT 20 Dec 15:24:02 15:27:40 22° 294° (WNW) 15:31:16 436.000
ITAMSAT 1 20 Dec 15:26:09 15:29:48 19° 267° (W) 15:33:27 435.822/435.867
ISS 20 Dec 15:28:56 15:31:32 21° 334° (NNW) 15:34:07 145.825
JAS-2 20 Dec 15:37:40 15:43:16 23° 63° (ENE) 15:48:31 435.910
AO-7 20 Dec 15:48:31 15:56:47 75° 69° (ENE) 16:05:08 29.400- 29.500
AIST 2 20 Dec 15:50:20 15:53:13 18° 314° (NW) 15:56:08 435.215
SRMSAT 20 Dec 16:11:12 16:13:22 12° 182° (S) 16:15:32 437.500
AUBIESAT-1 20 Dec 16:24:16 16:26:18 13° 303° (WNW) 16:28:15 437.475
STARS 20 Dec 16:26:50 16:30:40 29° 290° (WNW) 16:34:30 437.465
AIST 1 20 Dec 16:28:19 16:32:08 30° 90° (E) 16:35:56
KKS-1 20 Dec 16:30:47 16:33:55 19° 294° (WNW) 16:37:03 437.445
Cubesat XI-IV 20 Dec 16:42:36 16:44:33 12° 60° (ENE) 16:46:29 437.490
GONETS M04 20 Dec 16:49:08 16:57:31 47° 76° (ENE) 17:05:47
CUTE-I 20 Dec 17:13:22 17:17:29 23° 65° (ENE) 17:21:36 437.470
JAS-2 20 Dec 17:20:02 17:27:44 71° 258° (WSW) 17:34:50 435.910
RS-15 20 Dec 17:26:07 17:32:22 16° 3° (N) 17:38:43 29.354- 29.394
MOZHAYETS 4 20 Dec 17:37:58 17:42:36 74° 102° (ESE) 17:47:11
AO-7 20 Dec 17:44:13 17:50:14 22° 267° (W) 17:56:19 29.400- 29.500
AIST 1 20 Dec 18:06:30 18:09:48 21° 286° (WNW) 18:13:05
Cubesat XI-IV 20 Dec 18:18:31 18:23:52 86° 256° (WSW) 18:29:13 437.490
PRISM 20 Dec 18:24:34 18:28:14 30° 97° (E) 18:31:51 437.425
ISS 20 Dec 18:46:02 18:46:59 11° 14° (NNE) 18:47:56 145.825
GONETS M04 20 Dec 18:46:24 18:54:01 35° 275° (W) 19:01:35
CUTE-I 20 Dec 18:52:15 18:57:16 42° 261° (W) 19:02:18 437.470
CUBESAT XI-V 20 Dec 19:01:00 19:05:18 38° 98° (E) 19:09:35 437.345
STRAND 1 20 Dec 19:10:03 19:14:50 40° 99° (E) 19:19:35 437.568
JAS-2 20 Dec 19:11:58 19:13:33 11° 272° (W) 19:15:07 435.910
MOZHAYETS 4 20 Dec 19:17:57 19:19:10 11° 298° (WNW) 19:20:23
HO-68 20 Dec 19:22:22 19:27:39 23° 59° (ENE) 19:32:56 435.675
DANDE 20 Dec 19:31:23 19:36:04 17° 66° (ENE) 19:41:03 436.750
MaSat-1 20 Dec 19:34:52 19:36:46 19° 250° (WSW) 19:38:44 437.345
RS-15 20 Dec 19:40:18 19:49:58 32° 38° (NE) 19:59:56 29.354- 29.394
PRISM 20 Dec 20:00:30 20:03:33 20° 293° (WNW) 20:06:35 437.425
CANX-2 20 Dec 20:02:45 20:06:08 23° 69° (ENE) 20:09:33 2200.000
CUSAT 1 20 Dec 20:20:58 20:28:18 42° 75° (ENE) 20:36:14 437.405
ISS 20 Dec 20:21:12 20:24:18 38° 33° (NNE) 20:27:23 145.825
COMPASS 1 20 Dec 20:24:16 20:27:47 27° 70° (ENE) 20:31:21 437.405
SEEDS 20 Dec 20:29:28 20:33:21 36° 72° (ENE) 20:37:16 437.485
BRITE-PL 20 Dec 20:31:25 20:35:27 48° 74° (ENE) 20:39:26 437.365/2234.400
CUTE 1.7 + AOD 2 20 Dec 20:32:45 20:36:50 46° 73° (ENE) 20:40:57 437.475
CUBESAT XI-V 20 Dec 20:39:11 20:42:27 20° 293° (WNW) 20:45:43 437.345
DELFI C3 20 Dec 20:41:49 20:44:09 15° 66° (ENE) 20:46:29 145.870
DX 1 20 Dec 20:48:15 20:51:12 18° 66° (ENE) 20:54:09 434.975-435.025
STRAND 1 20 Dec 20:49:50 20:53:45 23° 294° (WNW) 20:57:39 437.568
SO-50 20 Dec 20:52:42 20:56:38 30° 113° (ESE) 21:00:42 436.795
GOMX 1 20 Dec 20:57:35 21:01:42 68° 76° (ENE) 21:05:51 467.674
HO-68 20 Dec 21:07:33 21:14:41 69° 256° (WSW) 21:21:52 435.675
Oscar 11 20 Dec 21:09:23 21:13:23 38° 72° (ENE) 21:17:25 145.826/435.025
DANDE 20 Dec 21:12:33 21:20:23 79° 81° (E) 21:29:07 436.750
UKube-1 20 Dec 21:18:02 21:22:00 37° 71° (ENE) 21:25:59 .
DOVE 4 20 Dec 21:22:33 21:26:41 84° 258° (WSW) 21:30:53 437.250
AAUSAT CUBESAT 2 20 Dec 21:23:39 21:27:50 70° 259° (WSW) 21:32:04 437.432
BEESAT 2 20 Dec 21:29:45 21:31:26 12° 43° (NE) 21:33:07 435.950
CUBEBUG 2 20 Dec 21:29:59 21:33:51 39° 72° (ENE) 21:37:49 437.445
CANX-2 20 Dec 21:38:18 21:41:56 27° 264° (W) 21:45:36 2200.000
ZACube-1 20 Dec 21:40:11 21:44:01 36° 72° (ENE) 21:47:55 437.345
VELOX 1 20 Dec 21:42:49 21:46:18 23° 68° (ENE) 21:49:47 145.980
CINEMA 3 20 Dec 21:47:08 21:51:16 77° 258° (WSW) 21:55:31 145.822/145.860
ESTCUBE 1 20 Dec 21:48:27 21:49:28 11° 62° (ENE) 21:50:29 437.505/2401.250
RS-15 20 Dec 21:52:23 22:03:45 84° 242° (WSW) 22:15:37 29.354- 29.394
ISS 20 Dec 21:58:13 22:00:42 20° 229° (SW) 22:03:10 145.825
COMPASS 1 20 Dec 22:00:05 22:03:27 23° 265° (W) 22:06:52 437.405
CUSAT 1 20 Dec 22:04:01 22:11:21 44° 269° (W) 22:19:15 437.405
SEEDS 20 Dec 22:06:29 22:09:17 17° 267° (W) 22:12:06 437.485
FUNcube-1 20 Dec 22:06:31 22:10:40 75° 76° (ENE) 22:14:55 145.935
UWE-3 20 Dec 22:07:34 22:11:44 87° 257° (WSW) 22:16:01 435.000/436.395/437.385
UNISAT 6 20 Dec 22:08:29 22:10:05 12° 90° (E) 22:11:41 437.425
CUTE 1.7 + AOD 2 20 Dec 22:10:53 22:13:00 13° 269° (W) 22:15:07 437.475
BRITE-PL 20 Dec 22:12:53 22:14:16 11° 269° (W) 22:15:39 437.365/2234.400
DELFI C3 20 Dec 22:15:09 22:19:02 41° 261° (W) 22:22:58 145.870
50 SAT 20 Dec 22:16:37 22:20:24 43° 73° (ENE) 22:24:15 437.505
PCSat 20 Dec 22:19:12 22:22:59 19° 47° (NE) 22:26:45 145.827
DX 1 20 Dec 22:23:07 22:27:09 37° 261° (W) 22:31:12 434.975-435.025
AISAT 20 Dec 22:25:01 22:29:24 70° 75° (ENE) 22:33:48 437.250
BEESAT 3 20 Dec 22:26:10 22:30:09 42° 55° (NE) 22:34:04 437.485
POLYITAN 1 20 Dec 22:29:48 22:31:03 11° 91° (E) 22:32:18 437.675
CUBEBUG 1 20 Dec 22:31:14 22:34:58 28° 70° (ENE) 22:38:41 437.445
NANOSAT C BR1 20 Dec 22:31:45 22:33:09 11° 91° (E) 22:34:34 145.865
SO-50 20 Dec 22:33:11 22:37:08 29° 310° (NW) 22:41:13 436.795
AIST 2 20 Dec 22:34:03 22:37:31 23° 49° (NE) 22:40:57 435.215
ANTELSAT 20 Dec 22:38:26 22:42:21 25° 95° (E) 22:46:16 437.575/2403.000
HUMSAT D 20 Dec 22:39:30 22:43:37 77° 258° (WSW) 22:47:48 437.325/437.525
QB50P1 20 Dec 22:44:57 22:47:45 17° 94° (E) 22:50:32 145.935-145.965
Oscar 11 20 Dec 22:46:51 22:49:41 17° 267° (W) 22:52:32 145.826/435.025
UKube-1 20 Dec 22:55:21 22:58:16 18° 266° (W) 23:01:12 .
DANDE 20 Dec 22:57:32 23:03:15 22° 275° (W) 23:09:22 436.750
BEESAT 2 20 Dec 23:06:02 23:10:14 80° 241° (WSW) 23:14:22 435.950
CUBEBUG 2 20 Dec 23:08:16 23:10:45 15° 268° (W) 23:13:15 437.445
POPSAT HIP 1 20 Dec 23:12:45 23:16:41 35° 98° (E) 23:20:36 437.405
TIGRISAT 20 Dec 23:13:18 23:17:58 59° 101° (E) 23:22:37 435.000
ZACube-1 20 Dec 23:17:52 23:20:32 16° 267° (W) 23:23:14 437.345
VELOX 1 20 Dec 23:18:52 23:22:43 29° 263° (W) 23:26:36 145.980
ESTCUBE 1 20 Dec 23:21:10 23:25:42 74° 258° (WSW) 23:30:15 437.505/2401.250
TISAT 1 20 Dec 23:34:30 23:38:17 34° 71° (ENE) 23:42:04 437.305
SPROUT 20 Dec 23:38:20 23:42:12 34° 71° (ENE) 23:46:04 437.525
BUGSAT 1 20 Dec 23:38:40 23:42:40 56° 101° (E) 23:46:40 437.445
DUCHIFAT 1 20 Dec 23:40:25 23:44:41 76° 102° (ESE) 23:48:57 145.980
UNISAT 6 20 Dec 23:42:34 23:47:15 66° 285° (WNW) 23:51:56 437.425
YUBILEINY 20 Dec 23:53:10 00:01:23 48° 89° (E) 00:09:35 435.215
50 SAT 20 Dec 23:54:00 23:55:50 13° 268° (W) 23:57:42 437.505
QB50P2 20 Dec 23:54:08 23:58:24 73° 284° (WNW) 00:02:40 145.880/145.840
PCSat 21 Dec 00:01:30 00:06:54 67° 246° (WSW) 00:12:14 145.827
POLYITAN 1 21 Dec 00:03:06 00:07:19 57° 286° (WNW) 00:11:31 437.675
NANOSAT C BR1 21 Dec 00:05:10 00:09:20 54° 286° (WNW) 00:13:29 145.865
BEESAT 3 21 Dec 00:05:23 00:07:57 16° 251° (WSW) 00:10:31 437.485
RS-15 21 Dec 00:07:23 00:14:30 19° 260° (W) 00:21:49 29.354- 29.394
CUBEBUG 1 21 Dec 00:07:48 00:11:17 23° 265° (W) 00:14:47 437.445
AIST 2 21 Dec 00:12:19 00:16:12 34° 246° (WSW) 00:20:00 435.215
ANTELSAT 21 Dec 00:14:59 00:19:06 31° 290° (WNW) 00:23:13 437.575/2403.000
